This demonstration page uses our WeatherBlox Daily Observations layout. Learn more.

Left ArrowRight Arrow

Hourly Observations for September 27, 2022

Temp ( °F °C ) Dew Point ( °F °C ) Humidity (%) Winds ( mph kmh ) Pressure ( in mb ) Visibility ( mi km ) Precip ( " mm )
12:53 am 00:53 Clear 69 20.6 54 12.2 59 59 Calm 29.86 1011 10 16 0.00 0.00
1:53 am 01:53 Clear 68 20 54 12.2 61 61 Calm 29.87 1011 10 16 0.00 0.00
2:53 am 02:53 Clear 66 18.9 54 12.2 65 65 Calm 29.86 1011 10 16 0.00 0.00
3:53 am 03:53 Clear 68 20 53 11.7 59 59 NW 6 9 29.86 1011 10 16 0.00 0.00
4:53 am 04:53 Clear 65 18.3 54 12.2 68 68 Calm 29.88 1012 10 16 0.00 0.00
5:53 am 05:53 Clear 63 17.2 54 12.2 72 72 Calm 29.89 1012 10 16 0.00 0.00
6:53 am 06:53 Clear 62 16.7 54 12.2 75 75 Calm 29.90 1013 10 16 0.00 0.00
7:53 am 07:53 Sunny 65 18.3 54 12.2 68 68 Calm 29.92 1013 10 16 0.00 0.00
8:53 am 08:53 Sunny 69 20.6 54 12.2 59 59 Calm 29.93 1014 10 16 0.00 0.00
9:53 am 09:53 Sunny 75 23.9 54 12.2 48 48 NE 3 6 29.93 1014 10 16 0.00 0.00
10:53 am 10:53 Sunny 81 27.2 53 11.7 38 38 Calm 29.93 1013 10 16 0.00 0.00
11:53 am 11:53 Sunny 83 28.3 52 11.1 34 34 Calm 29.91 1013 10 16 0.00 0.00
12:53 pm 12:53 Sunny 88 31.1 50 10 27 27 undefined N/A 29.90 1012 10 16 0.00 0.00
1:53 pm 13:53 Sunny 89 31.7 45 7.2 22 22 SSE 7 11 29.89 1012 10 16 0.00 0.00
2:53 pm 14:53 Sunny 91 32.8 45 7.2 20 20 SSW 10 17 29.87 1011 10 16 0.00 0.00
3:53 pm 15:53 Sunny 91 32.8 46 7.8 21 21 S 10 17 29.85 1011 10 16 0.00 0.00
4:53 pm 16:53 Sunny 90 32.2 43 6.1 20 20 S 10 17 29.85 1011 10 16 0.00 0.00
5:53 pm 17:53 Sunny 89 31.7 38 3.3 17 17 S 12 19 29.85 1011 10 16 0.00 0.00
6:53 pm 18:53 Sunny 82 27.8 43 6.1 25 25 SSE 8 13 29.86 1011 10 16 0.00 0.00
7:53 pm 19:53 Clear 77 25 45 7.2 32 32 ESE 3 6 29.87 1011 10 16 0.00 0.00
8:53 pm 20:53 Clear 74 23.3 46 7.8 37 37 ESE 5 7 29.89 1012 10 16 0.00 0.00
9:53 pm 21:53 Clear 71 21.7 48 8.9 44 44 NNE 3 6 29.90 1013 10 16 0.00 0.00
10:53 pm 22:53 Clear 67 19.4 47 8.3 49 49 N 3 6 29.91 1013 10 16 0.00 0.00
11:53 pm 23:53 Clear 64 17.8 46 7.8 52 52 W 5 7 29.92 1013 10 16 0.00 0.00

Powered by AerisWeather